Varsity Lakes Middle School FL US WEATHERSTEM current weather conditions

sailwx.info

Wind from 017 at 6 knots gusting 11

Air temperature 25.4° C
Dewpoint 22.1° C

Last reported at 2020-Sep-30 17:00 UTC.
Time now 2020-Sep-30 17:45 UTC

Location: N 26°37' W 081°44'.
View on Google Maps.

See reports from other nearby stations

  
Tides and Currents Weather Stations Pressure Air Temp Water Temp Dewpoint Dewpoint Depression Visibility Wind Speed Wind Dir Waves Ship Positions
date/time (UTC)wind fromknots sea level pressurealtimeterstation pressurevisibilityair tempwater tempwave heightnotes
2020-Sep-30 17:00 017 6 gusting 11 25.4
2020-Sep-30 16:50 040 8 gusting 11 25.1
2020-Sep-30 16:40 033 7 gusting 10 24.8
2020-Sep-30 16:30 016 7 gusting 11 24.7
2020-Sep-30 16:20 067 3 gusting 13 24.5
2020-Sep-30 16:10 355 4 gusting 13 24.1
2020-Sep-30 16:00 021 6 gusting 13 23.9
2020-Sep-30 15:50 043 6 gusting 10 24.0
2020-Sep-30 15:40 013 9 gusting 10 23.4
2020-Sep-30 15:30 049 7 gusting 12 23.2
2020-Sep-30 15:20 057 5 gusting 11 22.8
2020-Sep-30 15:10 022 8 gusting 12 22.3
2020-Sep-30 15:00 030 6 gusting 13 22.0
2020-Sep-30 14:50 014 8 gusting 13 21.7
2020-Sep-30 14:40 050 8 gusting 13 21.6
2020-Sep-30 14:30 030 10 gusting 13 21.3
2020-Sep-30 14:20 009 9 gusting 14 21.1
2020-Sep-30 14:10 020 11 gusting 13 20.9
2020-Sep-30 14:00 030 5 gusting 10 20.7
2020-Sep-30 13:50 040 8 gusting 11 20.6
2020-Sep-30 13:40 355 10 gusting 13 20.4
2020-Sep-30 13:30 014 4 gusting 10 20.2
2020-Sep-30 13:20 360 7 gusting 12 19.9
2020-Sep-30 13:10 005 7 gusting 10 20.0
2020-Sep-30 13:00 030 6 gusting 11 20.2
2020-Sep-30 12:50 013 6 gusting 10 20.3
2020-Sep-30 12:40 011 10 gusting 10 20.4
2020-Sep-30 12:30 360 7 gusting 12 20.5
2020-Sep-30 12:20 005 10 gusting 13 20.7
2020-Sep-30 12:10 017 8 gusting 13 20.9
2020-Sep-30 12:00 005 7 gusting 11 21.1
2020-Sep-30 11:50 025 8 gusting 12 21.4
2020-Sep-30 11:40 028 6 gusting 10 21.8
2020-Sep-30 11:30 360 4 gusting 11 22.1
2020-Sep-30 11:20 027 5 gusting 11 22.3
2020-Sep-30 11:10 009 7 gusting 12 22.7
2020-Sep-30 11:00 014 6 gusting 10 23.4
2020-Sep-30 10:50 015 2 gusting 6 23.5
2020-Sep-30 10:30 009 6 gusting 6 23.6
2020-Sep-30 10:20 005 3 gusting 7 23.6
2020-Sep-30 10:10 005 5 gusting 9 23.6
2020-Sep-30 10:00 351 3 gusting 4 23.6
2020-Sep-30 09:50 351 3 gusting 4 23.6
2020-Sep-30 09:40 351 3 gusting 4 23.6
2020-Sep-30 09:30 351 2 gusting 2 23.6
2020-Sep-30 09:20 351 1 gusting 3 23.6
2020-Sep-30 09:10 351 0 gusting 2 23.7
2020-Sep-30 09:00 351 0 gusting 2 23.6
2020-Sep-30 08:50 23.6
2020-Sep-30 08:40 23.7
2020-Sep-30 08:30 351 0 gusting 2 23.6
2020-Sep-30 08:20 351 1 gusting 2 23.7
2020-Sep-30 08:10 351 0 gusting 3 23.7
2020-Sep-30 07:50 351 1 gusting 1 23.8
2020-Sep-30 07:40 351 0 gusting 2 23.8
2020-Sep-30 07:30 351 0 gusting 1 23.9
2020-Sep-30 07:20 351 1 gusting 2 23.9
2020-Sep-30 07:10 23.9
2020-Sep-30 07:00 351 0 gusting 1 24.0
2020-Sep-30 06:50 351 1 gusting 1 24.1
2020-Sep-30 06:40 351 2 gusting 3 24.1
2020-Sep-30 06:30 355 1 gusting 3 24.2
2020-Sep-30 06:20 355 0 gusting 1 24.2
2020-Sep-30 06:10 355 0 gusting 1 24.2
2020-Sep-30 06:00 24.2
2020-Sep-30 05:50 355 0 gusting 2 24.2
2020-Sep-30 05:40 355 0 gusting 3 24.2
2020-Sep-30 05:30 355 2 gusting 3 24.2
2020-Sep-30 05:20 350 2 gusting 3 24.2
2020-Sep-30 05:10 347 1 gusting 2 24.2
2020-Sep-30 05:00 24.2
2020-Sep-30 04:50 344 0 gusting 1 24.2
2020-Sep-30 04:40 344 1 gusting 2 24.2
2020-Sep-30 04:30 344 0 gusting 2 24.2
2020-Sep-30 04:20 344 1 gusting 2 24.2
2020-Sep-30 04:10 344 0 gusting 1 24.2
2020-Sep-30 04:00 24.2
2020-Sep-30 03:50 344 0 gusting 2 24.1
2020-Sep-30 03:40 344 0 gusting 2 24.1
2020-Sep-30 03:20 24.2
2020-Sep-30 03:10 344 0 gusting 3 24.1
2020-Sep-30 03:00 345 1 gusting 2 24.1
2020-Sep-30 02:50 345 0 gusting 1 24.1
2020-Sep-30 02:40 24.1
2020-Sep-30 02:20 342 2 gusting 3 24.2
2020-Sep-30 02:10 24.2
2020-Sep-30 02:00 342 1 gusting 5 24.2
2020-Sep-30 01:50 340 3 gusting 5 24.3
2020-Sep-30 01:40 309 2 gusting 4 24.3
2020-Sep-30 01:20 313 2 gusting 6 24.5
2020-Sep-30 01:10 269 3 gusting 12 24.6
2020-Sep-30 01:00 220 11 gusting 15 25.2
2020-Sep-30 00:50 246 3 gusting 4 25.7
2020-Sep-30 00:40 245 2 gusting 4 25.7
2020-Sep-30 00:20 278 0 gusting 1 25.9
2020-Sep-30 00:10 25.9
2020-Sep-30 00:00 280 0 gusting 3 25.9
2020-Sep-29 23:50 280 1 gusting 2 26.0
2020-Sep-29 23:40 281 0 gusting 2 26.1
2020-Sep-29 23:20 280 0 gusting 4 26.2
2020-Sep-29 23:10 283 2 gusting 4 26.3
2020-Sep-29 23:00 283 1 gusting 4 26.6
2020-Sep-29 22:50 282 1 gusting 6 26.8
2020-Sep-29 22:40 315 6 gusting 9 27.2
2020-Sep-29 22:20 217 1 gusting 5 28.3
2020-Sep-29 22:10 234 2 gusting 8 28.4
2020-Sep-29 22:00 242 4 gusting 8 28.6
2020-Sep-29 21:50 223 4 gusting 10 28.9
2020-Sep-29 21:40 229 6 gusting 12 29.2
2020-Sep-29 21:20 223 6 gusting 13 29.8
2020-Sep-29 21:10 231 6 gusting 11 30.0
2020-Sep-29 21:00 249 8 gusting 11 30.3
2020-Sep-29 20:40 238 5 gusting 13 30.8
2020-Sep-29 20:20 209 4 gusting 14 31.7
2020-Sep-29 20:10 245 6 gusting 13 31.7
2020-Sep-29 20:00 265 8 gusting 13 31.6
2020-Sep-29 19:50 227 11 gusting 14 31.4
2020-Sep-29 19:20 222 13 gusting 13 32.0
2020-Sep-29 19:00 213 8 gusting 13 31.9
2020-Sep-29 18:50 251 6 gusting 15 31.9
2020-Sep-29 18:20 242 11 gusting 13 31.2
2020-Sep-29 18:10 242 7 gusting 12 31.1
2020-Sep-29 18:00 217 6 gusting 11 30.8
2020-Sep-29 17:50 199 6 gusting 11 30.3
2020-Sep-29 17:40 212 3 gusting 11 29.6
2020-Sep-29 17:20 239 5 gusting 7 28.3
2020-Sep-29 17:10 231 3 gusting 7 27.6
2020-Sep-29 17:00 240 3 gusting 8 27.2
2020-Sep-29 16:50 189 2 gusting 8 27.3
2020-Sep-29 16:20 227 5 gusting 13 29.7
2020-Sep-29 16:10 236 7 gusting 13 30.4
2020-Sep-29 16:00 175 6 gusting 9 30.2
2020-Sep-29 15:50 209 3 gusting 8 29.9
2020-Sep-29 15:20 142 5 gusting 12 29.9
2020-Sep-29 15:10 153 2 gusting 7 29.3
2020-Sep-29 15:00 171 6 gusting 8 28.9
2020-Sep-29 14:50 148 3 gusting 8 28.7
2020-Sep-29 14:40 152 1 gusting 7 28.4
2020-Sep-29 14:20 178 2 gusting 5 27.8
2020-Sep-29 14:10 186 1 gusting 7 27.6
2020-Sep-29 14:00 156 5 gusting 6 27.4
2020-Sep-29 13:50 171 1 gusting 3 27.2
2020-Sep-29 13:40 171 3 gusting 3 26.9
2020-Sep-29 13:20 138 2 gusting 4 26.8
2020-Sep-29 13:00 107 1 gusting 3 25.9
2020-Sep-29 12:40 107 1 gusting 2 25.1
2020-Sep-29 12:20 24.4
2020-Sep-29 12:10 24.2
2020-Sep-29 12:00 23.9
2020-Sep-29 11:50 23.7
2020-Sep-29 11:40 23.6
2020-Sep-29 11:20 057 0 gusting 0 23.4
2020-Sep-29 11:10 23.4
2020-Sep-29 11:00 23.4
2020-Sep-29 10:50 23.4
2020-Sep-29 10:40 23.4
2020-Sep-29 10:20 23.3
2020-Sep-29 10:10 057 0 gusting 1 23.3
2020-Sep-29 10:00 057 1 gusting 2 23.3
2020-Sep-29 09:50 057 0 gusting 1 23.3
2020-Sep-29 09:40 057 0 gusting 2 23.3
2020-Sep-29 09:20 23.3
2020-Sep-29 09:10 057 1 gusting 1 23.4
2020-Sep-29 09:00 23.3
2020-Sep-29 08:50 23.4
2020-Sep-29 08:40 23.4
2020-Sep-29 08:20 23.5
2020-Sep-29 08:10 23.5
2020-Sep-29 07:50 23.6
2020-Sep-29 07:40 23.6
2020-Sep-29 07:20 23.7
2020-Sep-29 07:10 23.7
2020-Sep-29 07:00 23.7
2020-Sep-29 06:50 23.7
2020-Sep-29 06:40 23.7
2020-Sep-29 06:20 23.7
2020-Sep-29 06:10 23.7
2020-Sep-29 06:00 23.7
2020-Sep-29 05:50 23.7
2020-Sep-29 05:40 23.7
2020-Sep-29 05:20 23.7
2020-Sep-29 05:10 23.7
2020-Sep-29 05:00 23.7
2020-Sep-29 04:50 23.7
2020-Sep-29 04:40 23.7
2020-Sep-29 04:20 23.8
2020-Sep-29 04:10 23.7
2020-Sep-29 03:50 057 1 gusting 2 23.8
2020-Sep-29 03:40 057 0 gusting 3 23.8
2020-Sep-29 03:20 057 1 gusting 3 23.9
2020-Sep-29 03:10 057 0 gusting 2 23.9
2020-Sep-29 03:00 057 1 gusting 2 24.0
2020-Sep-29 02:50 23.9
2020-Sep-29 02:40 23.9
2020-Sep-29 02:20 23.9
2020-Sep-29 02:10 057 0 gusting 1 23.9
2020-Sep-29 02:00 057 0 gusting 1 23.9
2020-Sep-29 01:50 057 0 gusting 1 23.8
2020-Sep-29 01:40 057 0 gusting 3 23.8
2020-Sep-29 01:20 057 2 gusting 4 23.9
2020-Sep-29 01:10 057 2 gusting 4 23.9
2020-Sep-29 01:00 057 2 gusting 6 24.0
2020-Sep-29 00:50 044 4 gusting 6 24.2
2020-Sep-29 00:40 043 2 gusting 8 24.3
2020-Sep-29 00:10 051 4 gusting 11 25.7
2020-Sep-28 23:50 069 5 gusting 16 26.5
2020-Sep-28 23:40 080 7 gusting 10 28.4
2020-Sep-28 23:20 229 3 gusting 6 29.8
2020-Sep-28 23:10 281 2 gusting 4 30.8
2020-Sep-28 23:00 283 2 gusting 6 31.0
2020-Sep-28 22:50 287 3 gusting 6 31.2
2020-Sep-28 22:40 291 3 gusting 6 31.4
2020-Sep-28 22:20 290 1 gusting 6 31.6
2020-Sep-28 22:10 264 5 gusting 6 31.8
2020-Sep-28 22:00 292 3 gusting 6 31.9
2020-Sep-28 21:50 305 1 gusting 6 32.0
2020-Sep-28 21:40 323 5 gusting 7 31.9
2020-Sep-28 21:20 292 3 gusting 8 31.9
2020-Sep-28 17:10 229 1 gusting 6 32.3
2020-Sep-28 17:00 230 0 gusting 5 32.1